Location: Great Snoring
(52.8667°N, 0.8833°E)
Time: 22:12:32
(UTC+00:00)

NOSS 3-1 (A) - Pass Details

Date: 19 May 2025
Orbit: 667 x 1541 km, 63.4° (Epoch: 14 June)

Event Time Altitude Azimuth Distance (km) Brightness Sun altitude
Exits shadow 22:37:13 - 220° (SW) 2,653 5.5 -15.3°
Reaches altitude 10° 22:38:18 10° 219° (SW) 2,228 5.1 -15.4°
Maximum altitude 22:43:20 80° 133° (SE) 837 3.1 -15.6°
Drops below altitude 10° 22:49:29 10° 48° (NE) 2,699 6.2 -15.9°
Sets 22:52:21 0° 48° (NE) 3,790 7.0 -16.0°
